Retour au catalogue

STARLINK-34028

ActifCommunicationsVLEO
NORAD 63973·PAYLOAD·🇺🇸 United States

Lancé May 13, 2025 depuis Cape Canaveral Space Force Station

Loading…

Prochains Passages (prochaines 24 heures)

TLE

FraisSource: CelesTrak SupGP

Époque: Sep 14, 2026, 22:37 UTC

1 63973C 25099X   26257.94284722 -.00038508  00000+0 -13945-2 0  2579
2 63973  43.0024 184.1807 0001262 267.6094 230.3211 15.27603976    16

Suivez STARLINK-34028 en temps réel avec AllMySat

Download on the App Store